When you browse on this site, cookies collect data to enhance your experience and personalize the content and advertising you see.
Visit our Privacy Policy to learn more. By continuing to use the site, you agree to this use of cookies and data.
  • In Schweiz
  • Länderverzeichnis
  • Für 7 Tage
  • Wassertemperatur
  • Satellitenkarten
  • Wetterkarte
  • Widgets
  • user-avatar
    Anmelden

    Stündliche Wetter Krzyz

    Heute, 25 Mai, Samstag

    Zeit Temperatur Niederschläge Wind Luftdruck Luftfeuchtigkeit
    00:00 +12°C° 0 mm 1 m/S 743 mmHg 69%
    01:00 +10°C° 0 mm 2 m/S 743 mmHg 69%
    02:00 +10°C° 0 mm 2 m/S 743 mmHg 70%
    03:00 +10°C° 0 mm 2 m/S 743 mmHg 72%
    04:00 +10°C° 0 mm 2 m/S 743 mmHg 73%
    05:00 +11°C° 0 mm 3 m/S 743 mmHg 72%
    06:00 +13°C° 0 mm 3 m/S 743 mmHg 72%
    07:00 +14°C° 0 mm 3 m/S 743 mmHg 71%
    08:00 +17°C° 0.1 mm 3 m/S 743 mmHg 68%
    09:00 +19°C° 0.1 mm 3 m/S 743 mmHg 66%
    10:00 +20°C° 0.1 mm 4 m/S 743 mmHg 63%
    11:00 +21°C° 0.4 mm 4 m/S 743 mmHg 63%
    12:00 +21°C° 0.4 mm 4 m/S 743 mmHg 62%
    13:00 +21°C° 0.4 mm 4 m/S 743 mmHg 62%
    14:00 +21°C° 0.4 mm 4 m/S 743 mmHg 63%
    15:00 +21°C° 0.4 mm 4 m/S 743 mmHg 64%
    16:00 +21°C° 0.4 mm 4 m/S 743 mmHg 65%
    17:00 +20°C° 0.2 mm 3 m/S 743 mmHg 69%
    18:00 +18°C° 0.2 mm 2 m/S 743 mmHg 74%
    19:00 +17°C° 0.2 mm 2 m/S 743 mmHg 78%
    20:00 +16°C° 0 mm 2 m/S 743 mmHg 81%
    21:00 +15°C° 0 mm 2 m/S 744 mmHg 84%
    22:00 +14°C° 0 mm 1 m/S 744 mmHg 87%
    23:00 +13°C° 0 mm 2 m/S 744 mmHg 89%

    Morgen, 26 Mai, Sonntag

    Zeit Temperatur Niederschläge Wind Luftdruck Luftfeuchtigkeit
    00:00 +13°C° 0 mm 2 m/S 744 mmHg 90%
    01:00 +12°C° 0 mm 2 m/S 744 mmHg 92%
    02:00 +10°C° 0 mm 2 m/S 744 mmHg 93%
    03:00 +10°C° 0 mm 2 m/S 744 mmHg 93%
    04:00 +9°C° 0 mm 2 m/S 744 mmHg 93%
    05:00 +10°C° 0 mm 2 m/S 744 mmHg 89%
    06:00 +13°C° 0 mm 2 m/S 744 mmHg 84%
    07:00 +14°C° 0 mm 2 m/S 744 mmHg 80%
    08:00 +16°C° 0 mm 3 m/S 744 mmHg 74%
    09:00 +17°C° 0 mm 3 m/S 744 mmHg 69%
    10:00 +18°C° 0 mm 4 m/S 744 mmHg 63%
    11:00 +19°C° 0 mm 4 m/S 744 mmHg 61%
    12:00 +20°C° 0 mm 5 m/S 743 mmHg 59%
    13:00 +21°C° 0 mm 5 m/S 743 mmHg 57%
    14:00 +21°C° 0 mm 5 m/S 743 mmHg 57%
    15:00 +21°C° 0 mm 5 m/S 742 mmHg 57%
    16:00 +21°C° 0 mm 5 m/S 742 mmHg 58%
    17:00 +20°C° 0 mm 4 m/S 742 mmHg 63%
    18:00 +19°C° 0 mm 3 m/S 742 mmHg 68%
    19:00 +18°C° 0 mm 2 m/S 742 mmHg 73%
    20:00 +17°C° 0 mm 2 m/S 742 mmHg 75%
    21:00 +16°C° 0 mm 2 m/S 742 mmHg 77%
    22:00 +14°C° 0 mm 3 m/S 743 mmHg 79%
    23:00 +14°C° 0 mm 3 m/S 742 mmHg 81%

    übermorgen, 27 Mai, Montag

    Zeit Temperatur Niederschläge Wind Luftdruck Luftfeuchtigkeit
    00:00 +14°C° 0 mm 3 m/S 742 mmHg 83%
    01:00 +13°C° 0 mm 3 m/S 742 mmHg 85%
    02:00 +13°C° 0 mm 3 m/S 742 mmHg 87%
    03:00 +13°C° 0 mm 3 m/S 741 mmHg 90%
    04:00 +12°C° 0 mm 3 m/S 741 mmHg 92%
    05:00 +14°C° 0 mm 3 m/S 741 mmHg 86%
    06:00 +17°C° 0 mm 4 m/S 741 mmHg 80%
    07:00 +18°C° 0 mm 4 m/S 741 mmHg 74%
    08:00 +20°C° 0 mm 5 m/S 741 mmHg 68%
    09:00 +21°C° 0 mm 5 m/S 741 mmHg 62%
    10:00 +23°C° 0 mm 6 m/S 741 mmHg 56%
    11:00 +23°C° 0 mm 6 m/S 741 mmHg 54%
    12:00 +24°C° 0 mm 6 m/S 740 mmHg 52%
    13:00 +26°C° 0 mm 5 m/S 740 mmHg 50%
    14:00 +26°C° 0 mm 5 m/S 740 mmHg 51%
    15:00 +26°C° 0 mm 5 m/S 740 mmHg 52%
    16:00 +26°C° 0 mm 5 m/S 740 mmHg 54%
    17:00 +23°C° 0 mm 4 m/S 740 mmHg 62%
    18:00 +22°C° 0 mm 3 m/S 740 mmHg 70%
    19:00 +20°C° 0 mm 2 m/S 740 mmHg 78%
    20:00 +19°C° 0 mm 2 m/S 740 mmHg 82%
    21:00 +18°C° 0 mm 1 m/S 740 mmHg 86%
    22:00 +16°C° 0 mm 1 m/S 740 mmHg 90%
    23:00 +16°C° 0 mm 1 m/S 740 mmHg 92%

    28 Mai, Dienstag

    Zeit Temperatur Niederschläge Wind Luftdruck Luftfeuchtigkeit
    00:00 +16°C° 0 mm 1 m/S 740 mmHg 93%
    01:00 +15°C° 0 mm 2 m/S 740 mmHg 94%
    02:00 +15°C° 0.3 mm 2 m/S 739 mmHg 95%
    03:00 +15°C° 0.3 mm 2 m/S 739 mmHg 95%
    04:00 +15°C° 0.3 mm 2 m/S 739 mmHg 96%
    05:00 +15°C° 2.5 mm 2 m/S 739 mmHg 96%
    06:00 +15°C° 2.5 mm 2 m/S 739 mmHg 96%
    07:00 +16°C° 2.5 mm 3 m/S 739 mmHg 97%
    08:00 +16°C° 1.5 mm 2 m/S 738 mmHg 95%
    09:00 +16°C° 1.5 mm 2 m/S 738 mmHg 94%
    10:00 +17°C° 1.5 mm 2 m/S 738 mmHg 93%
    11:00 +18°C° 0.5 mm 2 m/S 738 mmHg 89%
    12:00 +19°C° 0.5 mm 2 m/S 738 mmHg 85%
    13:00 +20°C° 0.5 mm 2 m/S 738 mmHg 82%
    14:00 +20°C° 1 mm 3 m/S 738 mmHg 84%
    15:00 +19°C° 1 mm 3 m/S 738 mmHg 87%
    16:00 +19°C° 1 mm 4 m/S 738 mmHg 89%
    17:00 +16°C° 0.8 mm 5 m/S 738 mmHg 91%
    18:00 +15°C° 0.8 mm 5 m/S 738 mmHg 93%
    19:00 +14°C° 0.8 mm 6 m/S 738 mmHg 95%
    20:00 +14°C° 0.3 mm 6 m/S 739 mmHg 94%
    21:00 +13°C° 0.3 mm 6 m/S 739 mmHg 94%
    22:00 +11°C° 0.3 mm 6 m/S 739 mmHg 94%
    23:00 +11°C° 0.8 mm 7 m/S 740 mmHg 94%

    29 Mai, Mittwoch

    Zeit Temperatur Niederschläge Wind Luftdruck Luftfeuchtigkeit
    00:00 +11°C° 0.8 mm 7 m/S 740 mmHg 94%
    01:00 +11°C° 0.8 mm 7 m/S 741 mmHg 94%
    02:00 +10°C° 1.4 mm 7 m/S 741 mmHg 94%
    03:00 +10°C° 1.4 mm 6 m/S 742 mmHg 94%
    04:00 +10°C° 1.4 mm 6 m/S 742 mmHg 94%
    05:00 +9°C° 0.2 mm 6 m/S 743 mmHg 92%
    06:00 +9°C° 0.2 mm 6 m/S 744 mmHg 90%
    07:00 +8°C° 0.2 mm 6 m/S 745 mmHg 88%
    08:00 +9°C° 0 mm 6 m/S 745 mmHg 83%
    09:00 +11°C° 0 mm 6 m/S 746 mmHg 77%
    10:00 +13°C° 0 mm 6 m/S 746 mmHg 71%
    11:00 +13°C° 0 mm 6 m/S 747 mmHg 70%
    12:00 +14°C° 0 mm 5 m/S 747 mmHg 68%
    13:00 +14°C° 0 mm 5 m/S 747 mmHg 66%
    14:00 +14°C° 0 mm 5 m/S 748 mmHg 66%
    15:00 +14°C° 0 mm 5 m/S 748 mmHg 66%
    16:00 +14°C° 0 mm 5 m/S 748 mmHg 66%
    17:00 +14°C° 0 mm 4 m/S 749 mmHg 70%
    18:00 +13°C° 0 mm 4 m/S 749 mmHg 73%
    19:00 +12°C° 0 mm 3 m/S 749 mmHg 77%
    20:00 +11°C° 0 mm 3 m/S 750 mmHg 79%
    21:00 +10°C° 0 mm 2 m/S 751 mmHg 80%
    22:00 +9°C° 0 mm 2 m/S 751 mmHg 81%
    23:00 +8°C° 0 mm 2 m/S 751 mmHg 81%

    30 Mai, Donnerstag

    Zeit Temperatur Niederschläge Wind Luftdruck Luftfeuchtigkeit
    00:00 +8°C° 0 mm 2 m/S 752 mmHg 81%
    01:00 +7°C° 0 mm 2 m/S 752 mmHg 81%
    02:00 +7°C° 0 mm 2 m/S 752 mmHg 81%
    03:00 +6°C° 0 mm 2 m/S 752 mmHg 82%
    04:00 +6°C° 0 mm 2 m/S 752 mmHg 82%
    05:00 +7°C° 0 mm 2 m/S 752 mmHg 79%
    06:00 +9°C° 0 mm 2 m/S 752 mmHg 75%
    07:00 +10°C° 0 mm 2 m/S 753 mmHg 72%
    08:00 +13°C° 0 mm 1 m/S 752 mmHg 66%
    09:00 +14°C° 0 mm 1 m/S 752 mmHg 61%
    10:00 +16°C° 0 mm 1 m/S 752 mmHg 55%
    11:00 +18°C° 0 mm 1 m/S 752 mmHg 52%
    12:00 +17°C° 0 mm 0 m/S 751 mmHg 49%
    13:00 +17°C° 0 mm 0 m/S 751 mmHg 46%
    14:00 +17°C° 0 mm 0 m/S 750 mmHg 46%
    15:00 +20°C° 0 mm 1 m/S 750 mmHg 45%
    16:00 +20°C° 0 mm 1 m/S 750 mmHg 45%
    17:00 +19°C° 0 mm 1 m/S 749 mmHg 50%
    18:00 +18°C° 0 mm 1 m/S 749 mmHg 56%
    19:00 +16°C° 0 mm 1 m/S 749 mmHg 62%
    20:00 +15°C° 0 mm 1 m/S 749 mmHg 63%
    21:00 +14°C° 0 mm 1 m/S 749 mmHg 63%
    22:00 +13°C° 0 mm 2 m/S 749 mmHg 64%
    23:00 +13°C° 0 mm 2 m/S 749 mmHg 66%
    Mehr zeigen